Lid_Strength_Index
9 9 9 9 9 9 8 8 7 6 6 6 5 5 5 6 6 6 7 7 7 6
9 9 9 9 9 8 8 7 7 6 6 6 5 5 5 5 6 6 7 7 7 6
9 9 9 9 9 8 8 7 7 7 6 6 5 5 5 6 5 6 7 7 7 7
9 9 9 9 8 8 8 7 7 6 6 6 6 5 5 5 5 6 7 7 7 7
9 9 9 9 8 8 8 7 7 6 6 6 5 5 5 5 5 5 7 7 7 7
9 9 9 9 8 8 8 8 7 7 6 6 5 4 5 5 5 5 6 6 6 7
9 9 8 8 8 8 8 8 8 7 7 6 6 5 5 6 6 5 5 5 6 6
9 9 9 8 8 9 8 8 8 8 7 7 6 5 5 6 6 6 5 5 5 6
10 9 9 9 9 9 9 9 8 8 8 7 7 8 8 7 7 6 6 6 6 7
10 10 10 10 10 10 9 9 9 9 9 8 7 9 9 9 7 7 6 6 7 8
11 11 11 11 10 10 10 9 9 9 9 8 8 10 10 11 7 7 7 7 7 8
11 12 11 11 10 10 10 10 10 10 9 9 9 11 10 9 7 8 8 8 7 7
11 11 11 11 11 12 11 11 11 11 10 11 9 11 10 8 8 8 9 9 8 12
10 10 10 10 13 12 12 12 12 12 12 11 10 10 10 9 9 9 11 11 12 11